Wetterdaten: Sonntag, 01.09.2013
Datum Zeit Temperatur Luftfeuchte Luftdruck Regen Wind Richtung Richtung Taupunkt Windchill Windben
01.09.2013 00:00 12,9 C 94 % 1025,6 hPa 0,0 l/m 1,4 km/h (1 Bft) O-SO 112 12,0 C 13,1 C 0,0 km/h (0 Bft)
01.09.2013 00:05 12,9 C 94 % 1025,4 hPa 0,0 l/m 1,6 km/h (1 Bft) S 180 12,0 C 13,1 C 5,3 km/h (1 Bft)
01.09.2013 00:10 12,9 C 94 % 1025,4 hPa 0,0 l/m 1,6 km/h (1 Bft) S 180 12,0 C 13,0 C 0,0 km/h (0 Bft)
01.09.2013 00:15 12,9 C 94 % 1025,4 hPa 0,0 l/m 1,1 km/h (1 Bft) O-NO 67 12,0 C 13,0 C 0,0 km/h (0 Bft)
01.09.2013 00:20 12,8 C 94 % 1025,4 hPa 0,0 l/m 0,8 km/h (0 Bft) O 90 11,9 C 12,9 C 3,4 km/h (1 Bft)
01.09.2013 00:25 12,8 C 94 % 1025,4 hPa 0,0 l/m 0,8 km/h (0 Bft) S-SO 157 11,9 C 12,9 C 0,0 km/h (0 Bft)
01.09.2013 00:30 12,8 C 95 % 1025,4 hPa 0,0 l/m 1,0 km/h (0 Bft) S-SO 157 12,0 C 12,9 C 3,5 km/h (1 Bft)
01.09.2013 00:35 12,8 C 95 % 1025,4 hPa 0,0 l/m 1,0 km/h (0 Bft) S-SW 202 12,0 C 12,9 C 3,1 km/h (1 Bft)
01.09.2013 00:40 12,7 C 95 % 1025,4 hPa 0,0 l/m 1,4 km/h (1 Bft) S-SO 157 11,9 C 12,9 C 6,4 km/h (2 Bft)
01.09.2013 00:45 12,7 C 95 % 1025,4 hPa 0,0 l/m 1,9 km/h (1 Bft) SO 135 11,9 C 12,9 C 4,8 km/h (1 Bft)
01.09.2013 00:50 12,7 C 95 % 1025,4 hPa 0,0 l/m 2,3 km/h (1 Bft) S 180 11,9 C 12,8 C 2,4 km/h (1 Bft)
01.09.2013 00:55 12,7 C 95 % 1025,4 hPa 0,0 l/m 1,9 km/h (1 Bft) S 180 11,9 C 12,8 C 4,5 km/h (1 Bft)
01.09.2013 01:00 12,7 C 95 % 1025,4 hPa 0,0 l/m 1,3 km/h (1 Bft) SO 135 11,9 C 12,8 C 1,9 km/h (1 Bft)
01.09.2013 01:05 12,7 C 95 % 1025,3 hPa 0,0 l/m 1,1 km/h (1 Bft) O-SO 112 11,9 C 12,8 C 0,0 km/h (0 Bft)
01.09.2013 01:10 12,6 C 95 % 1025,3 hPa 0,0 l/m 0,8 km/h (0 Bft) O-SO 112 11,8 C 12,7 C 0,0 km/h (0 Bft)
01.09.2013 01:15 12,6 C 95 % 1025,3 hPa 0,0 l/m 0,6 km/h (0 Bft) SO 135 11,8 C 12,7 C 1,9 km/h (1 Bft)
01.09.2013 01:20 12,6 C 95 % 1025,3 hPa 0,0 l/m 1,0 km/h (0 Bft) S-SO 157 11,8 C 12,7 C 3,1 km/h (1 Bft)
01.09.2013 01:25 12,6 C 95 % 1025,3 hPa 0,0 l/m 0,8 km/h (0 Bft) SO 135 11,8 C 12,6 C 0,0 km/h (0 Bft)
01.09.2013 01:30 12,6 C 95 % 1025,3 hPa 0,0 l/m 0,8 km/h (0 Bft) SO 135 11,8 C 12,7 C 0,0 km/h (0 Bft)
01.09.2013 01:35 12,6 C 95 % 1025,3 hPa 0,0 l/m 0,8 km/h (0 Bft) S-SO 157 11,8 C 12,7 C 2,4 km/h (1 Bft)
01.09.2013 01:40 12,6 C 95 % 1025,3 hPa 0,0 l/m 1,0 km/h (0 Bft) O-SO 112 11,8 C 12,7 C 0,0 km/h (0 Bft)
01.09.2013 01:45 12,6 C 95 % 1025,2 hPa 0,0 l/m 0,8 km/h (0 Bft) O-SO 112 11,8 C 12,7 C 0,0 km/h (0 Bft)
01.09.2013 01:50 12,6 C 95 % 1025,2 hPa 0,7 l/m 0,3 km/h (0 Bft) S-SO 157 11,8 C 12,7 C 0,0 km/h (0 Bft)
01.09.2013 01:55 12,6 C 95 % 1025,2 hPa 0,0 l/m 0,2 km/h (0 Bft) O-SO 112 11,8 C 12,6 C 0,0 km/h (0 Bft)
01.09.2013 02:00 12,6 C 95 % 1025,2 hPa 0,0 l/m 0,0 km/h (0 Bft) SO 135 11,8 C 12,6 C 0,0 km/h (0 Bft)
01.09.2013 02:05 12,5 C 95 % 1025,2 hPa 0,0 l/m 0,2 km/h (0 Bft) NO 45 11,7 C 12,6 C 0,0 km/h (0 Bft)
01.09.2013 02:10 12,5 C 95 % 1025,2 hPa 0,0 l/m 0,5 km/h (0 Bft) O-SO 112 11,7 C 12,6 C 1,6 km/h (1 Bft)
01.09.2013 02:15 12,5 C 95 % 1025,2 hPa 0,0 l/m 0,8 km/h (0 Bft) NO 45 11,7 C 12,6 C 2,4 km/h (1 Bft)
01.09.2013 02:20 12,5 C 95 % 1025,2 hPa 0,0 l/m 0,8 km/h (0 Bft) O-SO 112 11,7 C 12,6 C 0,0 km/h (0 Bft)
01.09.2013 02:25 12,5 C 95 % 1025,1 hPa 0,0 l/m 0,6 km/h (0 Bft) NO 45 11,7 C 12,6 C 1,8 km/h (1 Bft)
01.09.2013 02:30 12,5 C 95 % 1025,1 hPa 0,0 l/m 0,3 km/h (0 Bft) NO 45 11,7 C 12,6 C 0,0 km/h (0 Bft)
01.09.2013 02:35 12,4 C 95 % 1025,1 hPa 0,0 l/m 0,2 km/h (0 Bft) NO 45 11,6 C 12,5 C 1,6 km/h (1 Bft)
01.09.2013 02:40 12,3 C 95 % 1025,1 hPa 0,0 l/m 0,5 km/h (0 Bft) NO 45 11,5 C 12,5 C 2,4 km/h (1 Bft)
01.09.2013 02:45 12,3 C 95 % 1025,0 hPa 0,0 l/m 0,6 km/h (0 Bft) NO 45 11,5 C 12,4 C 1,9 km/h (1 Bft)
01.09.2013 02:50 12,3 C 95 % 1025,0 hPa 0,0 l/m 0,6 km/h (0 Bft) NO 45 11,5 C 12,4 C 1,6 km/h (1 Bft)
01.09.2013 02:55 12,3 C 95 % 1025,0 hPa 0,0 l/m 0,8 km/h (0 Bft) NO 45 11,5 C 12,4 C 0,0 km/h (0 Bft)
01.09.2013 03:00 12,3 C 95 % 1025,0 hPa 0,0 l/m 1,0 km/h (0 Bft) NO 45 11,5 C 12,4 C 2,3 km/h (1 Bft)
01.09.2013 03:05 12,3 C 95 % 1024,9 hPa 0,0 l/m 1,0 km/h (0 Bft) NO 45 11,5 C 12,4 C 0,0 km/h (0 Bft)
01.09.2013 03:10 12,3 C 95 % 1024,9 hPa 0,0 l/m 0,6 km/h (0 Bft) N-NO 22 11,5 C 12,4 C 0,0 km/h (0 Bft)
01.09.2013 03:15 12,2 C 95 % 1024,9 hPa 0,0 l/m 0,5 km/h (0 Bft) N 360 11,4 C 12,4 C 0,0 km/h (0 Bft)
01.09.2013 03:20 12,2 C 95 % 1024,9 hPa 0,0 l/m 0,5 km/h (0 Bft) O 90 11,4 C 12,3 C 0,0 km/h (0 Bft)
01.09.2013 03:25 12,2 C 95 % 1024,9 hPa 0,0 l/m 0,6 km/h (0 Bft) N 360 11,4 C 12,3 C 3,1 km/h (1 Bft)
01.09.2013 03:30 12,2 C 95 % 1024,9 hPa 0,0 l/m 0,8 km/h (0 Bft) N-NO 22 11,4 C 12,3 C 0,0 km/h (0 Bft)
01.09.2013 03:35 12,2 C 95 % 1024,9 hPa 0,0 l/m 1,3 km/h (1 Bft) N 360 11,4 C 12,3 C 0,0 km/h (0 Bft)
01.09.2013 03:40 12,2 C 95 % 1024,9 hPa 0,0 l/m 0,8 km/h (0 Bft) NO 45 11,4 C 12,3 C 0,0 km/h (0 Bft)
01.09.2013 03:45 12,3 C 95 % 1024,8 hPa 0,0 l/m 0,3 km/h (0 Bft) O 90 11,5 C 12,3 C 0,0 km/h (0 Bft)
01.09.2013 03:50 12,3 C 95 % 1024,8 hPa 0,0 l/m 0,2 km/h (0 Bft) O 90 11,5 C 12,4 C 0,0 km/h (0 Bft)
01.09.2013 03:55 12,3 C 95 % 1024,8 hPa 0,0 l/m 0,0 km/h (0 Bft) S-SO 157 11,5 C 12,4 C 0,0 km/h (0 Bft)
01.09.2013 04:00 12,4 C 95 % 1024,8 hPa 0,0 l/m 0,8 km/h (0 Bft) O-SO 112 11,6 C 12,4 C 0,0 km/h (0 Bft)
01.09.2013 04:05 12,3 C 95 % 1024,8 hPa 0,0 l/m 0,8 km/h (0 Bft) O-NO 67 11,5 C 12,4 C 0,0 km/h (0 Bft)
01.09.2013 04:10 12,3 C 95 % 1024,8 hPa 0,7 l/m 0,0 km/h (0 Bft) O-NO 67 11,5 C 12,4 C 0,0 km/h (0 Bft)
01.09.2013 04:15 12,3 C 95 % 1024,8 hPa 0,0 l/m 0,0 km/h (0 Bft) NO 45 11,5 C 12,4 C 0,0 km/h (0 Bft)
01.09.2013 04:20 12,2 C 95 % 1024,8 hPa 0,0 l/m 0,0 km/h (0 Bft) O 90 11,4 C 12,4 C 0,0 km/h (0 Bft)
01.09.2013 04:25 12,2 C 95 % 1024,7 hPa 0,0 l/m 0,0 km/h (0 Bft) NO 45 11,4 C 12,3 C 0,0 km/h (0 Bft)
01.09.2013 04:30 12,2 C 95 % 1024,7 hPa 0,0 l/m 0,0 km/h (0 Bft) O-SO 112 11,4 C 12,3 C 0,0 km/h (0 Bft)
01.09.2013 04:35 12,2 C 95 % 1024,7 hPa 0,0 l/m 0,0 km/h (0 Bft) SO 135 11,4 C 12,3 C 0,0 km/h (0 Bft)
01.09.2013 04:40 12,3 C 95 % 1024,7 hPa 0,0 l/m 0,0 km/h (0 Bft) O-SO 112 11,5 C 12,3 C 0,0 km/h (0 Bft)
01.09.2013 04:45 12,3 C 95 % 1024,6 hPa 0,0 l/m 0,0 km/h (0 Bft) O-SO 112 11,5 C 12,3 C 0,0 km/h (0 Bft)
01.09.2013 04:50 12,3 C 95 % 1024,6 hPa 0,0 l/m 0,0 km/h (0 Bft) NO 45 11,5 C 12,3 C 0,0 km/h (0 Bft)
01.09.2013 04:55 12,3 C 95 % 1024,6 hPa 0,0 l/m 0,0 km/h (0 Bft) NO 45 11,5 C 12,4 C 0,0 km/h (0 Bft)
01.09.2013 05:00 12,3 C 95 % 1024,6 hPa 0,0 l/m 0,0 km/h (0 Bft) NO 45 11,5 C 12,4 C 0,0 km/h (0 Bft)
01.09.2013 05:05 12,3 C 95 % 1024,8 hPa 0,0 l/m 0,0 km/h (0 Bft) NO 45 11,5 C 12,4 C 0,0 km/h (0 Bft)
01.09.2013 05:10 12,3 C 95 % 1024,8 hPa 0,0 l/m 0,2 km/h (0 Bft) O-NO 67 11,5 C 12,4 C 0,0 km/h (0 Bft)
01.09.2013 05:15 12,3 C 95 % 1024,8 hPa 0,7 l/m 0,2 km/h (0 Bft) O-NO 67 11,5 C 12,4 C 0,0 km/h (0 Bft)
01.09.2013 05:20 12,3 C 95 % 1024,8 hPa 0,0 l/m 0,8 km/h (0 Bft) NO 45 11,5 C 12,4 C 1,8 km/h (1 Bft)
01.09.2013 05:25 12,4 C 95 % 1024,6 hPa 0,7 l/m 0,8 km/h (0 Bft) O-SO 112 11,6 C 12,5 C 0,0 km/h (0 Bft)
01.09.2013 05:30 12,4 C 95 % 1024,6 hPa 0,0 l/m 1,0 km/h (0 Bft) S-SO 157 11,6 C 12,5 C 1,9 km/h (1 Bft)
01.09.2013 05:35 12,5 C 95 % 1024,6 hPa 0,0 l/m 1,1 km/h (1 Bft) S 180 11,7 C 12,6 C 2,6 km/h (1 Bft)
01.09.2013 05:40 12,5 C 95 % 1024,6 hPa 0,7 l/m 1,6 km/h (1 Bft) S-SW 202 11,7 C 12,6 C 3,9 km/h (1 Bft)
01.09.2013 05:45 12,5 C 95 % 1025,0 hPa 0,0 l/m 2,9 km/h (1 Bft) SO 135 11,7 C 12,6 C 3,2 km/h (1 Bft)
01.09.2013 05:50 12,4 C 95 % 1025,0 hPa 0,0 l/m 2,9 km/h (1 Bft) W-NW 292 11,6 C 12,6 C 2,9 km/h (1 Bft)
01.09.2013 05:55 12,4 C 95 % 1025,0 hPa 0,0 l/m 2,3 km/h (1 Bft) NO 45 11,6 C 12,5 C 1,8 km/h (1 Bft)
01.09.2013 06:00 12,3 C 95 % 1025,0 hPa 0,0 l/m 0,6 km/h (0 Bft) O-NO 67 11,5 C 12,5 C 7,4 km/h (2 Bft)
01.09.2013 06:05 12,3 C 95 % 1024,9 hPa 0,7 l/m 0,3 km/h (0 Bft) O 90 11,5 C 12,4 C 1,9 km/h (1 Bft)
01.09.2013 06:10 12,3 C 95 % 1024,9 hPa 0,0 l/m 0,6 km/h (0 Bft) O-SO 112 11,5 C 12,4 C 0,0 km/h (0 Bft)
01.09.2013 06:15 12,3 C 95 % 1024,9 hPa 0,0 l/m 0,6 km/h (0 Bft) S 180 11,5 C 12,4 C 0,0 km/h (0 Bft)
01.09.2013 06:20 12,3 C 95 % 1024,9 hPa 0,0 l/m 0,0 km/h (0 Bft) SO 135 11,5 C 12,4 C 0,0 km/h (0 Bft)
01.09.2013 06:25 12,3 C 95 % 1024,9 hPa 0,0 l/m 0,3 km/h (0 Bft) SO 135 11,5 C 12,4 C 2,6 km/h (1 Bft)
01.09.2013 06:30 12,2 C 95 % 1024,9 hPa 2,1 l/m 1,0 km/h (0 Bft) O-SO 112 11,4 C 12,4 C 1,8 km/h (1 Bft)
01.09.2013 06:35 12,2 C 95 % 1024,9 hPa 0,0 l/m 0,8 km/h (0 Bft) SO 135 11,4 C 12,4 C 0,0 km/h (0 Bft)
01.09.2013 06:40 12,2 C 95 % 1024,9 hPa 0,0 l/m 0,2 km/h (0 Bft) O-NO 67 11,4 C 12,4 C 0,0 km/h (0 Bft)
01.09.2013 06:45 12,2 C 95 % 1024,9 hPa 0,0 l/m 0,2 km/h (0 Bft) O-NO 67 11,4 C 12,4 C 1,9 km/h (1 Bft)
01.09.2013 06:50 12,2 C 95 % 1024,9 hPa 0,7 l/m 0,3 km/h (0 Bft) S-SO 157 11,4 C 12,4 C 0,0 km/h (0 Bft)
01.09.2013 06:55 12,2 C 95 % 1024,9 hPa 0,0 l/m 0,3 km/h (0 Bft) SO 135 11,4 C 12,4 C 2,1 km/h (1 Bft)
01.09.2013 07:00 12,2 C 95 % 1024,9 hPa 0,0 l/m 0,2 km/h (0 Bft) O 90 11,4 C 12,3 C 0,0 km/h (0 Bft)
01.09.2013 07:05 12,2 C 95 % 1024,9 hPa 0,0 l/m 0,2 km/h (0 Bft) O 90 11,4 C 12,3 C 0,0 km/h (0 Bft)
01.09.2013 07:10 12,2 C 95 % 1024,9 hPa 0,0 l/m 0,8 km/h (0 Bft) O 90 11,4 C 12,3 C 1,6 km/h (1 Bft)
01.09.2013 07:15 12,2 C 95 % 1024,9 hPa 0,0 l/m 1,0 km/h (0 Bft) O-NO 67 11,4 C 12,3 C 0,0 km/h (0 Bft)
01.09.2013 07:20 12,2 C 95 % 1024,9 hPa 0,0 l/m 0,3 km/h (0 Bft) O 90 11,4 C 12,3 C 0,0 km/h (0 Bft)
01.09.2013 07:25 12,2 C 95 % 1025,1 hPa 0,7 l/m 0,2 km/h (0 Bft) S 180 11,4 C 12,3 C 0,0 km/h (0 Bft)
01.09.2013 07:30 12,2 C 96 % 1025,1 hPa 0,7 l/m 0,2 km/h (0 Bft) O 90 11,6 C 12,4 C 0,0 km/h (0 Bft)
01.09.2013 07:35 12,2 C 95 % 1025,1 hPa 0,0 l/m 0,2 km/h (0 Bft) O 90 11,4 C 12,4 C 0,0 km/h (0 Bft)
01.09.2013 07:40 12,2 C 96 % 1025,1 hPa 0,7 l/m 0,3 km/h (0 Bft) O-NO 67 11,6 C 12,4 C 0,0 km/h (0 Bft)
01.09.2013 07:45 12,2 C 96 % 1025,2 hPa 0,0 l/m 0,3 km/h (0 Bft) O-NO 67 11,6 C 12,4 C 0,0 km/h (0 Bft)
01.09.2013 07:50 12,3 C 96 % 1025,2 hPa 0,0 l/m 0,0 km/h (0 Bft) O-NO 67 11,7 C 12,4 C 0,0 km/h (0 Bft)
01.09.2013 07:55 12,3 C 96 % 1025,2 hPa 0,7 l/m 0,0 km/h (0 Bft) O-NO 67 11,7 C 12,4 C 0,0 km/h (0 Bft)
01.09.2013 08:00 12,3 C 96 % 1025,2 hPa 0,0 l/m 0,0 km/h (0 Bft) NO 45 11,7 C 12,5 C 0,0 km/h (0 Bft)
01.09.2013 08:05 12,3 C 96 % 1025,1 hPa 0,0 l/m 0,0 km/h (0 Bft) NO 45 11,7 C 12,5 C 0,0 km/h (0 Bft)
01.09.2013 08:10 12,3 C 96 % 1025,1 hPa 1,4 l/m 0,0 km/h (0 Bft) N-NO 22 11,7 C 12,5 C 0,0 km/h (0 Bft)
01.09.2013 08:15 12,3 C 96 % 1025,1 hPa 0,0 l/m 0,0 km/h (0 Bft) O-SO 112 11,7 C 12,5 C 0,0 km/h (0 Bft)
01.09.2013 08:20 12,3 C 96 % 1025,1 hPa 0,7 l/m 0,6 km/h (0 Bft) O 90 11,7 C 12,5 C 2,4 km/h (1 Bft)
01.09.2013 08:25 12,3 C 96 % 1025,2 hPa 0,0 l/m 0,6 km/h (0 Bft) O-SO 112 11,7 C 12,5 C 0,0 km/h (0 Bft)
01.09.2013 08:30 12,3 C 96 % 1025,2 hPa 0,0 l/m 0,5 km/h (0 Bft) O 90 11,7 C 12,5 C 0,0 km/h (0 Bft)
01.09.2013 08:35 12,4 C 96 % 1025,2 hPa 0,7 l/m 0,3 km/h (0 Bft) O-SO 112 11,8 C 12,6 C 0,0 km/h (0 Bft)
01.09.2013 08:40 12,4 C 96 % 1025,2 hPa 0,0 l/m 0,2 km/h (0 Bft) O 90 11,8 C 12,6 C 0,0 km/h (0 Bft)
01.09.2013 08:45 12,5 C 96 % 1025,5 hPa 0,0 l/m 0,5 km/h (0 Bft) SO 135 11,9 C 12,6 C 0,0 km/h (0 Bft)
01.09.2013 08:50 12,6 C 96 % 1025,5 hPa 0,0 l/m 0,6 km/h (0 Bft) O-SO 112 12,0 C 12,8 C 2,4 km/h (1 Bft)
01.09.2013 08:55 12,6 C 96 % 1025,5 hPa 0,0 l/m 1,0 km/h (0 Bft) S 180 12,0 C 12,8 C 1,8 km/h (1 Bft)
01.09.2013 09:00 12,7 C 96 % 1025,5 hPa 0,0 l/m 1,1 km/h (1 Bft) O-NO 67 12,1 C 12,9 C 0,0 km/h (0 Bft)
01.09.2013 09:05 12,8 C 96 % 1025,4 hPa 0,0 l/m 0,5 km/h (0 Bft) S 180 12,2 C 13,1 C 0,0 km/h (0 Bft)
01.09.2013 09:10 12,8 C 96 % 1025,4 hPa 0,0 l/m 0,6 km/h (0 Bft) O-SO 112 12,2 C 13,0 C 0,0 km/h (0 Bft)
01.09.2013 09:15 12,7 C 96 % 1025,4 hPa 0,0 l/m 0,6 km/h (0 Bft) O-SO 112 12,1 C 13,0 C 0,0 km/h (0 Bft)
01.09.2013 09:20 12,8 C 96 % 1025,4 hPa 0,0 l/m 0,2 km/h (0 Bft) W-SW 247 12,2 C 13,0 C 1,6 km/h (1 Bft)
01.09.2013 09:25 12,9 C 96 % 1025,6 hPa 0,0 l/m 0,3 km/h (0 Bft) O-SO 112 12,3 C 13,1 C 2,1 km/h (1 Bft)
01.09.2013 09:30 12,8 C 96 % 1025,6 hPa 0,0 l/m 0,5 km/h (0 Bft) S 180 12,2 C 13,0 C 0,0 km/h (0 Bft)
01.09.2013 09:35 12,9 C 96 % 1025,6 hPa 0,0 l/m 0,5 km/h (0 Bft) S 180 12,3 C 13,1 C 0,0 km/h (0 Bft)
01.09.2013 09:40 12,8 C 96 % 1025,6 hPa 0,0 l/m 0,0 km/h (0 Bft) S 180 12,2 C 13,1 C 0,0 km/h (0 Bft)
01.09.2013 09:45 12,9 C 96 % 1025,8 hPa 0,0 l/m 0,2 km/h (0 Bft) S 180 12,3 C 13,1 C 0,0 km/h (0 Bft)
01.09.2013 09:50 12,9 C 96 % 1025,8 hPa 0,0 l/m 0,2 km/h (0 Bft) SO 135 12,3 C 13,1 C 0,0 km/h (0 Bft)
01.09.2013 09:55 13,1 C 95 % 1025,8 hPa 0,0 l/m 0,2 km/h (0 Bft) SO 135 12,3 C 13,2 C 1,6 km/h (1 Bft)
01.09.2013 10:00 13,3 C 95 % 1025,8 hPa 0,0 l/m 0,5 km/h (0 Bft) SO 135 12,5 C 13,3 C 0,0 km/h (0 Bft)
01.09.2013 10:05 13,3 C 95 % 1025,9 hPa 0,0 l/m 0,3 km/h (0 Bft) O-SO 112 12,5 C 13,4 C 0,0 km/h (0 Bft)
01.09.2013 10:10 13,4 C 95 % 1025,9 hPa 0,0 l/m 0,0 km/h (0 Bft) O-SO 112 12,6 C 13,8 C 0,0 km/h (0 Bft)
01.09.2013 10:15 13,5 C 95 % 1025,9 hPa 0,0 l/m 0,6 km/h (0 Bft) S-SW 202 12,7 C 13,8 C 0,0 km/h (0 Bft)
01.09.2013 10:20 13,6 C 95 % 1025,9 hPa 0,0 l/m 1,3 km/h (1 Bft) S-SO 157 12,8 C 14,0 C 2,9 km/h (1 Bft)
01.09.2013 10:25 13,8 C 95 % 1026,2 hPa 0,0 l/m 1,4 km/h (1 Bft) S 180 13,0 C 14,2 C 1,9 km/h (1 Bft)
01.09.2013 10:30 13,8 C 95 % 1026,2 hPa 0,0 l/m 2,3 km/h (1 Bft) O-SO 112 13,0 C 14,5 C 0,0 km/h (0 Bft)
01.09.2013 10:35 14,0 C 95 % 1026,2 hPa 0,0 l/m 1,1 km/h (1 Bft) O-SO 112 13,2 C 14,9 C 0,0 km/h (0 Bft)
01.09.2013 10:40 14,2 C 95 % 1026,2 hPa 0,0 l/m 0,2 km/h (0 Bft) SW 225 13,4 C 15,4 C 0,0 km/h (0 Bft)
01.09.2013 10:45 14,0 C 95 % 1026,3 hPa 0,0 l/m 0,2 km/h (0 Bft) O-NO 67 13,2 C 15,5 C 0,0 km/h (0 Bft)
01.09.2013 10:50 13,5 C 95 % 1026,3 hPa 0,0 l/m 0,2 km/h (0 Bft) O 90 12,7 C 15,3 C 0,0 km/h (0 Bft)
01.09.2013 10:55 13,5 C 95 % 1026,3 hPa 0,0 l/m 0,5 km/h (0 Bft) O-SO 112 12,7 C 15,0 C 0,0 km/h (0 Bft)
01.09.2013 11:00 13,9 C 95 % 1026,3 hPa 0,0 l/m 0,3 km/h (0 Bft) W 270 13,1 C 15,0 C 0,0 km/h (0 Bft)
01.09.2013 11:05 14,1 C 94 % 1026,4 hPa 0,0 l/m 0,0 km/h (0 Bft) W-NW 292 13,1 C 15,1 C 1,6 km/h (1 Bft)
01.09.2013 11:10 14,7 C 94 % 1026,4 hPa 0,0 l/m 0,2 km/h (0 Bft) SW 225 13,7 C 15,6 C 1,6 km/h (1 Bft)
01.09.2013 11:15 15,2 C 94 % 1026,4 hPa 0,0 l/m 0,3 km/h (0 Bft) SO 135 14,2 C 16,3 C 0,0 km/h (0 Bft)
01.09.2013 11:20 14,9 C 94 % 1026,4 hPa 0,0 l/m 0,5 km/h (0 Bft) NO 45 13,9 C 17,0 C 0,0 km/h (0 Bft)
01.09.2013 11:25 14,5 C 94 % 1026,7 hPa 0,0 l/m 0,3 km/h (0 Bft) W-SW 247 13,5 C 17,1 C 0,0 km/h (0 Bft)
01.09.2013 11:30 14,6 C 93 % 1026,7 hPa 0,0 l/m 0,6 km/h (0 Bft) NW 315 13,5 C 16,9 C 0,0 km/h (0 Bft)
01.09.2013 11:35 14,4 C 93 % 1026,7 hPa 0,0 l/m 0,6 km/h (0 Bft) NW 315 13,3 C 16,7 C 0,0 km/h (0 Bft)
01.09.2013 11:40 14,3 C 93 % 1026,7 hPa 0,0 l/m 0,0 km/h (0 Bft) W-NW 292 13,2 C 16,3 C 0,0 km/h (0 Bft)
01.09.2013 11:45 14,3 C 93 % 1026,3 hPa 0,0 l/m 0,3 km/h (0 Bft) W 270 13,2 C 16,0 C 3,4 km/h (1 Bft)
01.09.2013 11:50 14,2 C 92 % 1026,3 hPa 0,0 l/m 1,0 km/h (0 Bft) N-NW 337 12,9 C 15,8 C 0,0 km/h (0 Bft)
01.09.2013 11:55 14,7 C 92 % 1026,3 hPa 0,0 l/m 0,8 km/h (0 Bft) N-NO 22 13,4 C 16,0 C 0,0 km/h (0 Bft)
01.09.2013 12:00 15,4 C 92 % 1026,3 hPa 0,0 l/m 0,2 km/h (0 Bft) NW 315 14,1 C 16,7 C 0,0 km/h (0 Bft)
01.09.2013 12:05 16,8 C 90 % 1026,2 hPa 0,0 l/m 1,0 km/h (0 Bft) W-NW 292 15,1 C 17,6 C 3,5 km/h (1 Bft)
01.09.2013 12:10 17,7 C 85 % 1026,2 hPa 0,0 l/m 2,9 km/h (1 Bft) N-NW 337 15,1 C 18,8 C 9,2 km/h (2 Bft)
01.09.2013 12:15 18,0 C 80 % 1026,2 hPa 0,0 l/m 3,9 km/h (1 Bft) N 360 14,5 C 19,6 C 3,1 km/h (1 Bft)
01.09.2013 12:20 17,7 C 80 % 1026,2 hPa 0,0 l/m 3,5 km/h (1 Bft) W-NW 292 14,2 C 21,2 C 5,0 km/h (1 Bft)
01.09.2013 12:25 17,1 C 80 % 1026,8 hPa 0,0 l/m 2,7 km/h (1 Bft) NW 315 13,6 C 20,8 C 1,8 km/h (1 Bft)
01.09.2013 12:30 15,6 C 82 % 1026,8 hPa 0,0 l/m 2,1 km/h (1 Bft) NO 45 12,5 C 19,9 C 0,0 km/h (0 Bft)
01.09.2013 12:35 15,7 C 84 % 1026,8 hPa 0,0 l/m 1,6 km/h (1 Bft) NW 315 13,0 C 19,1 C 2,9 km/h (1 Bft)
01.09.2013 12:40 15,7 C 85 % 1026,8 hPa 0,0 l/m 1,6 km/h (1 Bft) N-NW 337 13,2 C 18,2 C 0,0 km/h (0 Bft)
01.09.2013 12:45 15,9 C 83 % 1026,3 hPa 0,0 l/m 2,1 km/h (1 Bft) O 90 13,0 C 18,2 C 2,1 km/h (1 Bft)
01.09.2013 12:50 16,5 C 85 % 1026,3 hPa 0,0 l/m 1,4 km/h (1 Bft) N 360 14,0 C 18,6 C 0,0 km/h (0 Bft)
01.09.2013 12:55 16,3 C 86 % 1026,3 hPa 0,0 l/m 1,0 km/h (0 Bft) SO 135 14,0 C 18,8 C 2,1 km/h (1 Bft)
01.09.2013 13:00 15,5 C 86 % 1026,3 hPa 0,0 l/m 1,1 km/h (1 Bft) N-NO 22 13,2 C 18,2 C 1,9 km/h (1 Bft)
01.09.2013 13:05 15,4 C 87 % 1026,2 hPa 0,0 l/m 1,6 km/h (1 Bft) O 90 13,2 C 17,4 C 0,0 km/h (0 Bft)
01.09.2013 13:10 15,1 C 88 % 1026,2 hPa 0,0 l/m 1,1 km/h (1 Bft) O 90 13,1 C 16,5 C 3,4 km/h (1 Bft)
01.09.2013 13:15 14,8 C 89 % 1026,2 hPa 0,0 l/m 0,6 km/h (0 Bft) O-SO 112 13,0 C 15,9 C 1,8 km/h (1 Bft)
01.09.2013 13:20 14,5 C 89 % 1026,2 hPa 0,0 l/m 0,5 km/h (0 Bft) NO 45 12,7 C 15,3 C 0,0 km/h (0 Bft)
01.09.2013 13:25 14,3 C 90 % 1026,1 hPa 0,0 l/m 0,3 km/h (0 Bft) NO 45 12,7 C 15,1 C 0,0 km/h (0 Bft)
01.09.2013 13:30 14,3 C 90 % 1026,1 hPa 0,0 l/m 0,2 km/h (0 Bft) N 360 12,7 C 14,9 C 0,0 km/h (0 Bft)
01.09.2013 13:35 14,7 C 91 % 1026,1 hPa 0,0 l/m 0,2 km/h (0 Bft) NO 45 13,2 C 14,9 C 0,0 km/h (0 Bft)
01.09.2013 13:40 15,0 C 91 % 1026,1 hPa 0,7 l/m 0,2 km/h (0 Bft) W-SW 247 13,5 C 15,2 C 0,0 km/h (0 Bft)
01.09.2013 13:45 15,3 C 91 % 1026,2 hPa 0,0 l/m 0,2 km/h (0 Bft) S 180 13,8 C 15,4 C 0,0 km/h (0 Bft)
01.09.2013 13:50 15,4 C 90 % 1026,2 hPa 0,0 l/m 0,3 km/h (0 Bft) O-NO 67 13,8 C 15,9 C 2,6 km/h (1 Bft)
01.09.2013 13:55 15,8 C 90 % 1026,2 hPa 0,0 l/m 0,8 km/h (0 Bft) O 90 14,2 C 16,7 C 2,4 km/h (1 Bft)
01.09.2013 14:00 16,2 C 89 % 1026,2 hPa 0,0 l/m 1,0 km/h (0 Bft) NO 45 14,4 C 17,8 C 1,6 km/h (1 Bft)
01.09.2013 14:05 16,7 C 89 % 1026,5 hPa 0,0 l/m 1,3 km/h (1 Bft) S-SW 202 14,9 C 18,5 C 2,9 km/h (1 Bft)
01.09.2013 14:10 17,3 C 86 % 1026,5 hPa 0,0 l/m 1,9 km/h (1 Bft) N-NO 22 14,9 C 19,8 C 0,0 km/h (0 Bft)
01.09.2013 14:15 17,4 C 85 % 1026,5 hPa 0,0 l/m 2,3 km/h (1 Bft) S-SW 202 14,8 C 20,5 C 4,5 km/h (1 Bft)
01.09.2013 14:20 17,0 C 83 % 1026,5 hPa 0,0 l/m 2,1 km/h (1 Bft) O 90 14,1 C 20,4 C 3,9 km/h (1 Bft)
01.09.2013 14:25 17,5 C 84 % 1026,4 hPa 0,0 l/m 2,1 km/h (1 Bft) S 180 14,8 C 20,6 C 5,8 km/h (2 Bft)
01.09.2013 14:30 17,5 C 82 % 1026,4 hPa 0,0 l/m 2,9 km/h (1 Bft) W 270 14,4 C 20,7 C 2,9 km/h (1 Bft)
01.09.2013 14:35 17,1 C 83 % 1026,4 hPa 0,0 l/m 3,1 km/h (1 Bft) S-SW 202 14,2 C 20,2 C 3,2 km/h (1 Bft)
01.09.2013 14:40 15,7 C 78 % 1026,4 hPa 0,0 l/m 4,8 km/h (1 Bft) W-SW 247 11,9 C 18,6 C 16,7 km/h (3 Bft)
01.09.2013 14:45 14,8 C 79 % 1026,4 hPa 0,0 l/m 6,3 km/h (2 Bft) S-SW 202 11,2 C 17,2 C 5,5 km/h (1 Bft)
01.09.2013 14:50 13,9 C 82 % 1026,4 hPa 0,0 l/m 6,6 km/h (2 Bft) S-SW 202 10,9 C 15,6 C 11,6 km/h (2 Bft)
01.09.2013 14:55 13,4 C 85 % 1026,4 hPa 0,0 l/m 6,6 km/h (2 Bft) S-SO 157 10,9 C 14,0 C 8,7 km/h (2 Bft)
01.09.2013 15:00 12,9 C 87 % 1026,4 hPa 0,7 l/m 6,6 km/h (2 Bft) O-NO 67 10,8 C 12,8 C 6,1 km/h (2 Bft)
01.09.2013 15:05 12,9 C 87 % 1026,4 hPa 0,0 l/m 5,5 km/h (1 Bft) S 180 10,8 C 12,9 C 3,1 km/h (1 Bft)
01.09.2013 15:10 13,1 C 88 % 1026,4 hPa 0,0 l/m 4,5 km/h (1 Bft) SW 225 11,2 C 12,7 C 4,5 km/h (1 Bft)
01.09.2013 15:15 13,0 C 88 % 1026,4 hPa 0,7 l/m 4,2 km/h (1 Bft) S-SO 157 11,1 C 12,7 C 5,5 km/h (1 Bft)
01.09.2013 15:20 13,4 C 89 % 1026,4 hPa 0,7 l/m 2,6 km/h (1 Bft) S-SO 157 11,6 C 12,9 C 0,0 km/h (0 Bft)
01.09.2013 15:25 13,4 C 89 % 1026,5 hPa 0,0 l/m 1,8 km/h (1 Bft) S 180 11,6 C 13,1 C 3,4 km/h (1 Bft)
01.09.2013 15:30 13,5 C 90 % 1026,5 hPa 0,0 l/m 2,1 km/h (1 Bft) SO 135 11,9 C 13,3 C 4,2 km/h (1 Bft)
01.09.2013 15:35 13,5 C 90 % 1026,5 hPa 0,0 l/m 2,6 km/h (1 Bft) S-SO 157 11,9 C 13,5 C 5,0 km/h (1 Bft)
01.09.2013 15:40 13,4 C 90 % 1026,5 hPa 0,0 l/m 2,9 km/h (1 Bft) O-SO 112 11,8 C 13,2 C 1,8 km/h (1 Bft)
01.09.2013 15:45 13,2 C 90 % 1026,6 hPa 0,0 l/m 2,9 km/h (1 Bft) O 90 11,6 C 13,2 C 2,4 km/h (1 Bft)
01.09.2013 15:50 13,3 C 90 % 1026,6 hPa 0,0 l/m 1,6 km/h (1 Bft) S 180 11,7 C 13,3 C 0,0 km/h (0 Bft)
01.09.2013 15:55 13,5 C 91 % 1026,6 hPa 0,0 l/m 1,0 km/h (0 Bft) SO 135 12,1 C 13,5 C 1,8 km/h (1 Bft)
01.09.2013 16:00 13,6 C 91 % 1026,6 hPa 0,0 l/m 1,0 km/h (0 Bft) N-NO 22 12,2 C 13,6 C 3,5 km/h (1 Bft)
01.09.2013 16:05 13,7 C 91 % 1026,6 hPa 0,0 l/m 1,0 km/h (0 Bft) O-SO 112 12,3 C 13,8 C 0,0 km/h (0 Bft)
01.09.2013 16:10 14,2 C 91 % 1026,6 hPa 0,0 l/m 1,3 km/h (1 Bft) O 90 12,8 C 14,4 C 2,3 km/h (1 Bft)
01.09.2013 16:15 14,4 C 91 % 1026,6 hPa 0,0 l/m 1,4 km/h (1 Bft) O-SO 112 12,9 C 14,6 C 0,0 km/h (0 Bft)
01.09.2013 16:20 13,8 C 91 % 1026,6 hPa 0,0 l/m 0,6 km/h (0 Bft) O-NO 67 12,4 C 14,4 C 1,8 km/h (1 Bft)
01.09.2013 16:25 13,7 C 91 % 1026,6 hPa 0,0 l/m 0,2 km/h (0 Bft) SO 135 12,3 C 14,3 C 0,0 km/h (0 Bft)
01.09.2013 16:30 13,5 C 91 % 1026,6 hPa 0,0 l/m 0,3 km/h (0 Bft) NO 45 12,1 C 14,0 C 0,0 km/h (0 Bft)
01.09.2013 16:35 13,4 C 91 % 1026,6 hPa 0,0 l/m 0,3 km/h (0 Bft) O-SO 112 12,0 C 14,0 C 0,0 km/h (0 Bft)
01.09.2013 16:40 13,7 C 91 % 1026,6 hPa 0,0 l/m 0,0 km/h (0 Bft) O-SO 112 12,3 C 14,2 C 0,0 km/h (0 Bft)
01.09.2013 16:45 13,9 C 92 % 1026,3 hPa 0,0 l/m 0,2 km/h (0 Bft) NO 45 12,6 C 14,3 C 0,0 km/h (0 Bft)
01.09.2013 16:50 13,9 C 92 % 1026,3 hPa 0,0 l/m 0,2 km/h (0 Bft) S 180 12,6 C 14,5 C 0,0 km/h (0 Bft)
01.09.2013 16:55 14,4 C 92 % 1026,3 hPa 0,0 l/m 0,2 km/h (0 Bft) O 90 13,1 C 14,8 C 0,0 km/h (0 Bft)
01.09.2013 17:00 15,0 C 91 % 1026,3 hPa 0,0 l/m 0,5 km/h (0 Bft) N 360 13,5 C 16,9 C 2,3 km/h (1 Bft)
01.09.2013 17:05 15,0 C 91 % 1026,6 hPa 0,0 l/m 1,1 km/h (1 Bft) S 180 13,5 C 17,7 C 4,2 km/h (1 Bft)
01.09.2013 17:10 14,8 C 91 % 1026,6 hPa 0,0 l/m 2,6 km/h (1 Bft) O-SO 112 13,3 C 18,0 C 5,5 km/h (1 Bft)
01.09.2013 17:15 14,7 C 90 % 1026,6 hPa 0,0 l/m 2,6 km/h (1 Bft) S-SO 157 13,1 C 18,2 C 2,6 km/h (1 Bft)
01.09.2013 17:20 14,7 C 90 % 1026,6 hPa 0,0 l/m 1,1 km/h (1 Bft) O-SO 112 13,1 C 18,2 C 0,0 km/h (0 Bft)
01.09.2013 17:25 14,9 C 90 % 1026,6 hPa 0,0 l/m 0,3 km/h (0 Bft) SW 225 13,3 C 18,2 C 2,6 km/h (1 Bft)
01.09.2013 17:30 15,0 C 90 % 1026,6 hPa 0,0 l/m 1,0 km/h (0 Bft) S 180 13,4 C 18,3 C 2,4 km/h (1 Bft)
01.09.2013 17:35 14,6 C 90 % 1026,6 hPa 0,0 l/m 1,3 km/h (1 Bft) N 360 13,0 C 18,0 C 3,1 km/h (1 Bft)
01.09.2013 17:40 14,2 C 89 % 1026,6 hPa 0,0 l/m 1,0 km/h (0 Bft) NO 45 12,4 C 16,9 C 0,0 km/h (0 Bft)
01.09.2013 17:45 14,2 C 90 % 1026,3 hPa 0,0 l/m 0,6 km/h (0 Bft) O-NO 67 12,6 C 16,4 C 1,6 km/h (1 Bft)
01.09.2013 17:50 14,2 C 90 % 1026,3 hPa 0,0 l/m 0,0 km/h (0 Bft) O 90 12,6 C 16,0 C 0,0 km/h (0 Bft)
01.09.2013 17:55 14,2 C 90 % 1026,3 hPa 0,0 l/m 0,2 km/h (0 Bft) O-NO 67 12,6 C 15,8 C 2,1 km/h (1 Bft)
01.09.2013 18:00 14,2 C 91 % 1026,3 hPa 0,0 l/m 0,0 km/h (0 Bft) W-SW 247 12,8 C 15,6 C 0,0 km/h (0 Bft)
01.09.2013 18:05 14,0 C 91 % 1026,1 hPa 0,0 l/m 0,3 km/h (0 Bft) W 270 12,6 C 15,4 C 3,1 km/h (1 Bft)
01.09.2013 18:10 13,3 C 90 % 1026,1 hPa 0,0 l/m 3,4 km/h (1 Bft) W-SW 247 11,7 C 14,6 C 5,6 km/h (1 Bft)
01.09.2013 18:15 12,7 C 90 % 1026,1 hPa 0,7 l/m 5,6 km/h (1 Bft) W-SW 247 11,1 C 13,8 C 5,6 km/h (1 Bft)
01.09.2013 18:20 12,0 C 91 % 1026,1 hPa 1,4 l/m 4,7 km/h (1 Bft) S 180 10,6 C 12,6 C 3,2 km/h (1 Bft)
01.09.2013 18:25 11,5 C 91 % 1026,5 hPa 0,7 l/m 3,1 km/h (1 Bft) O-NO 67 10,1 C 12,1 C 2,6 km/h (1 Bft)
01.09.2013 18:30 11,2 C 91 % 1026,5 hPa 1,4 l/m 2,9 km/h (1 Bft) O-NO 67 9,8 C 11,6 C 3,7 km/h (1 Bft)
01.09.2013 18:35 11,1 C 92 % 1026,5 hPa 0,0 l/m 2,9 km/h (1 Bft) O-SO 112 9,8 C 11,4 C 2,6 km/h (1 Bft)
01.09.2013 18:40 11,4 C 92 % 1026,5 hPa 0,0 l/m 1,3 km/h (1 Bft) S 180 10,1 C 11,4 C 1,8 km/h (1 Bft)
01.09.2013 18:45 11,5 C 93 % 1026,5 hPa 0,7 l/m 0,6 km/h (0 Bft) O-SO 112 10,4 C 11,4 C 1,8 km/h (1 Bft)
01.09.2013 18:50 11,5 C 93 % 1026,5 hPa 0,0 l/m 1,1 km/h (1 Bft) O 90 10,4 C 11,6 C 0,0 km/h (0 Bft)
01.09.2013 18:55 11,5 C 93 % 1026,5 hPa 0,0 l/m 1,1 km/h (1 Bft) O 90 10,4 C 11,6 C 1,9 km/h (1 Bft)
01.09.2013 19:00 11,6 C 93 % 1026,5 hPa 0,7 l/m 0,3 km/h (0 Bft) S 180 10,5 C 11,7 C 0,0 km/h (0 Bft)
01.09.2013 19:05 11,6 C 94 % 1026,5 hPa 0,0 l/m 0,5 km/h (0 Bft) O 90 10,7 C 11,7 C 0,0 km/h (0 Bft)
01.09.2013 19:10 11,6 C 94 % 1026,5 hPa 0,0 l/m 0,6 km/h (0 Bft) W-NW 292 10,7 C 11,7 C 0,0 km/h (0 Bft)
01.09.2013 19:15 11,6 C 94 % 1026,5 hPa 0,0 l/m 1,1 km/h (1 Bft) S 180 10,7 C 11,7 C 3,2 km/h (1 Bft)
01.09.2013 19:20 11,6 C 94 % 1026,5 hPa 0,0 l/m 1,6 km/h (1 Bft) SO 135 10,7 C 11,7 C 1,6 km/h (1 Bft)
01.09.2013 19:25 11,5 C 94 % 1026,6 hPa 0,0 l/m 1,8 km/h (1 Bft) O 90 10,6 C 11,7 C 2,3 km/h (1 Bft)
01.09.2013 19:30 11,5 C 94 % 1026,6 hPa 0,0 l/m 1,3 km/h (1 Bft) O-SO 112 10,6 C 11,7 C 3,1 km/h (1 Bft)
01.09.2013 19:35 11,5 C 94 % 1026,6 hPa 0,0 l/m 0,8 km/h (0 Bft) O-SO 112 10,6 C 11,7 C 0,0 km/h (0 Bft)
01.09.2013 19:40 11,5 C 94 % 1026,6 hPa 0,0 l/m 0,8 km/h (0 Bft) SO 135 10,6 C 11,7 C 1,8 km/h (1 Bft)
01.09.2013 19:45 11,5 C 94 % 1026,8 hPa 0,0 l/m 0,5 km/h (0 Bft) O-SO 112 10,6 C 11,7 C 1,8 km/h (1 Bft)
01.09.2013 19:50 11,5 C 95 % 1026,8 hPa 0,0 l/m 0,3 km/h (0 Bft) O-NO 67 10,7 C 11,7 C 2,6 km/h (1 Bft)
01.09.2013 19:55 11,5 C 95 % 1026,8 hPa 0,0 l/m 0,8 km/h (0 Bft) NO 45 10,7 C 11,6 C 0,0 km/h (0 Bft)
01.09.2013 20:00 11,5 C 95 % 1026,8 hPa 0,0 l/m 0,8 km/h (0 Bft) S-SO 157 10,7 C 11,6 C 0,0 km/h (0 Bft)
01.09.2013 20:05 11,5 C 95 % 1026,9 hPa 0,0 l/m 0,5 km/h (0 Bft) O 90 10,7 C 11,6 C 0,0 km/h (0 Bft)
01.09.2013 20:10 11,5 C 95 % 1026,9 hPa 0,0 l/m 1,6 km/h (1 Bft) O 90 10,7 C 11,6 C 3,5 km/h (1 Bft)
01.09.2013 20:15 11,5 C 95 % 1026,9 hPa 0,0 l/m 1,8 km/h (1 Bft) SW 225 10,7 C 11,6 C 0,0 km/h (0 Bft)
01.09.2013 20:20 11,5 C 95 % 1026,9 hPa 0,0 l/m 1,4 km/h (1 Bft) NO 45 10,7 C 11,6 C 3,1 km/h (1 Bft)
01.09.2013 20:25 11,5 C 95 % 1027,1 hPa 0,0 l/m 0,8 km/h (0 Bft) S 180 10,7 C 11,6 C 0,0 km/h (0 Bft)
01.09.2013 20:30 11,4 C 95 % 1027,1 hPa 0,0 l/m 0,3 km/h (0 Bft) S 180 10,6 C 11,5 C 0,0 km/h (0 Bft)
01.09.2013 20:35 11,4 C 95 % 1027,1 hPa 0,0 l/m 0,2 km/h (0 Bft) S 180 10,6 C 11,5 C 0,0 km/h (0 Bft)
01.09.2013 20:40 11,4 C 95 % 1027,1 hPa 0,0 l/m 0,0 km/h (0 Bft) O-SO 112 10,6 C 11,4 C 0,0 km/h (0 Bft)
01.09.2013 20:45 11,4 C 95 % 1027,2 hPa 0,0 l/m 0,0 km/h (0 Bft) O-SO 112 10,6 C 11,4 C 0,0 km/h (0 Bft)
01.09.2013 20:50 11,3 C 95 % 1027,2 hPa 0,0 l/m 0,2 km/h (0 Bft) O 90 10,5 C 11,4 C 0,0 km/h (0 Bft)
01.09.2013 20:55 11,1 C 95 % 1027,2 hPa 0,0 l/m 0,2 km/h (0 Bft) O-NO 67 10,3 C 11,2 C 0,0 km/h (0 Bft)
01.09.2013 21:00 11,1 C 95 % 1027,2 hPa 0,0 l/m 0,6 km/h (0 Bft) O-NO 67 10,3 C 11,1 C 0,0 km/h (0 Bft)
01.09.2013 21:05 11,2 C 95 % 1027,4 hPa 0,0 l/m 1,0 km/h (0 Bft) SO 135 10,4 C 11,1 C 0,0 km/h (0 Bft)
01.09.2013 21:10 11,3 C 95 % 1027,4 hPa 0,0 l/m 0,6 km/h (0 Bft) SO 135 10,5 C 11,2 C 3,5 km/h (1 Bft)
01.09.2013 21:15 11,3 C 95 % 1027,4 hPa 0,0 l/m 0,8 km/h (0 Bft) NO 45 10,5 C 11,3 C 1,9 km/h (1 Bft)
01.09.2013 21:20 11,3 C 95 % 1027,4 hPa 0,0 l/m 1,1 km/h (1 Bft) N 360 10,5 C 11,3 C 0,0 km/h (0 Bft)
01.09.2013 21:25 11,1 C 95 % 1027,6 hPa 0,0 l/m 1,4 km/h (1 Bft) O 90 10,3 C 11,1 C 3,5 km/h (1 Bft)
01.09.2013 21:30 11,0 C 95 % 1027,6 hPa 0,0 l/m 2,6 km/h (1 Bft) O 90 10,2 C 11,1 C 2,1 km/h (1 Bft)
01.09.2013 21:35 10,9 C 95 % 1027,6 hPa 0,0 l/m 1,9 km/h (1 Bft) S 180 10,1 C 10,9 C 0,0 km/h (0 Bft)
01.09.2013 21:40 10,8 C 95 % 1027,6 hPa 0,0 l/m 0,3 km/h (0 Bft) NO 45 10,0 C 10,7 C 1,6 km/h (1 Bft)
01.09.2013 21:45 10,9 C 95 % 1027,8 hPa 0,0 l/m 0,6 km/h (0 Bft) O 90 10,1 C 10,7 C 2,6 km/h (1 Bft)
01.09.2013 21:50 11,0 C 95 % 1027,8 hPa 0,0 l/m 1,1 km/h (1 Bft) O 90 10,2 C 10,9 C 0,0 km/h (0 Bft)
01.09.2013 21:55 11,0 C 95 % 1027,8 hPa 0,0 l/m 0,6 km/h (0 Bft) O-NO 67 10,2 C 10,9 C 0,0 km/h (0 Bft)
01.09.2013 22:00 11,0 C 95 % 1027,8 hPa 0,0 l/m 0,0 km/h (0 Bft) S-SO 157 10,2 C 10,9 C 0,0 km/h (0 Bft)
01.09.2013 22:05 11,0 C 95 % 1027,8 hPa 0,0 l/m 0,2 km/h (0 Bft) S-SW 202 10,2 C 10,9 C 0,0 km/h (0 Bft)
01.09.2013 22:10 11,1 C 95 % 1027,8 hPa 0,0 l/m 0,5 km/h (0 Bft) SO 135 10,3 C 11,0 C 0,0 km/h (0 Bft)
01.09.2013 22:15 11,0 C 95 % 1027,8 hPa 0,0 l/m 0,5 km/h (0 Bft) SO 135 10,2 C 11,0 C 0,0 km/h (0 Bft)
01.09.2013 22:20 10,9 C 95 % 1027,8 hPa 0,0 l/m 1,3 km/h (1 Bft) N-NW 337 10,1 C 11,0 C 1,6 km/h (1 Bft)
01.09.2013 22:25 10,8 C 95 % 1027,9 hPa 0,0 l/m 1,9 km/h (1 Bft) O 90 10,0 C 10,9 C 2,6 km/h (1 Bft)
01.09.2013 22:30 10,5 C 95 % 1027,9 hPa 0,0 l/m 1,8 km/h (1 Bft) O 90 9,7 C 10,6 C 2,9 km/h (1 Bft)
01.09.2013 22:35 10,4 C 95 % 1027,9 hPa 0,0 l/m 1,9 km/h (1 Bft) NO 45 9,6 C 10,4 C 2,4 km/h (1 Bft)
01.09.2013 22:40 10,5 C 95 % 1027,9 hPa 0,0 l/m 1,3 km/h (1 Bft) NO 45 9,7 C 10,4 C 0,0 km/h (0 Bft)
01.09.2013 22:45 10,6 C 95 % 1028,1 hPa 0,0 l/m 0,3 km/h (0 Bft) N-NO 22 9,8 C 10,4 C 0,0 km/h (0 Bft)
01.09.2013 22:50 10,6 C 95 % 1028,1 hPa 0,0 l/m 0,2 km/h (0 Bft) O 90 9,8 C 10,5 C 1,6 km/h (1 Bft)
01.09.2013 22:55 10,6 C 95 % 1028,1 hPa 0,0 l/m 0,8 km/h (0 Bft) O 90 9,8 C 10,6 C 2,7 km/h (1 Bft)
01.09.2013 23:00 10,5 C 95 % 1028,1 hPa 0,0 l/m 1,9 km/h (1 Bft) O-NO 67 9,7 C 10,6 C 3,1 km/h (1 Bft)
01.09.2013 23:05 10,4 C 95 % 1028,1 hPa 0,0 l/m 2,4 km/h (1 Bft) NO 45 9,6 C 10,6 C 2,6 km/h (1 Bft)
01.09.2013 23:10 10,2 C 95 % 1028,1 hPa 0,0 l/m 2,6 km/h (1 Bft) O 90 9,4 C 10,4 C 3,4 km/h (1 Bft)
01.09.2013 23:15 10,1 C 95 % 1028,1 hPa 0,0 l/m 2,6 km/h (1 Bft) SO 135 9,3 C 10,3 C 4,8 km/h (1 Bft)
01.09.2013 23:20 10,1 C 95 % 1028,1 hPa 0,0 l/m 2,7 km/h (1 Bft) NO 45 9,3 C 10,2 C 2,9 km/h (1 Bft)
01.09.2013 23:25 10,1 C 95 % 1028,1 hPa 0,0 l/m 2,7 km/h (1 Bft) NO 45 9,3 C 10,2 C 3,5 km/h (1 Bft)
01.09.2013 23:30 10,2 C 95 % 1028,1 hPa 0,0 l/m 2,6 km/h (1 Bft) O-SO 112 9,4 C 10,2 C 1,6 km/h (1 Bft)
01.09.2013 23:35 10,1 C 95 % 1028,1 hPa 0,0 l/m 1,6 km/h (1 Bft) O-SO 112 9,3 C 10,2 C 0,0 km/h (0 Bft)
01.09.2013 23:40 10,1 C 95 % 1028,1 hPa 0,0 l/m 0,3 km/h (0 Bft) O 90 9,3 C 10,2 C 1,6 km/h (1 Bft)
01.09.2013 23:45 10,0 C 95 % 1028,1 hPa 0,0 l/m 1,0 km/h (0 Bft) S-SO 157 9,2 C 10,2 C 3,2 km/h (1 Bft)
01.09.2013 23:50 9,9 C 95 % 1028,1 hPa 0,0 l/m 1,3 km/h (1 Bft) S-SO 157 9,1 C 10,1 C 0,0 km/h (0 Bft)
01.09.2013 23:55 9,7 C 95 % 1028,1 hPa 0,0 l/m 1,1 km/h (1 Bft) NO 45 8,9 C 10,1 C 3,4 km/h (1 Bft)
_ Min-Zeit 23:55 14:40 05:40 - 22:00 - - 23:55 23:55 23:50
Minimum _ 9,7 C 78 % 1024,6 hPa - 0,0 km/h (0 Bft) - - 8,9 C 10,1 C 0,0 km/h (0 Bft)
_ Max-Zeit 12:15 09:50 23:55 06:30 15:00 - - 12:05 12:20 14:40
Maximum _ 18,0 C 96 % 1028,1 hPa 2,1 l/m 6,6 km/h
O-NO (2 Bft)
- - 15,1 C 21,2 C 16,7 km/h
W-SW (3 Bft)
Durchschnitt _ 12,9 C 93 % 1026,1 hPa #20,6 l/m 1,1 km/h (0 Bft) O - 11,8 C 13,4 C 1,4 km/h (1 Bft)